Wind_Speed
45 45 45 45 45 45 45 45 45 45 47 50 52 53 54 55 55 57 60 61 59 57 56 52 47 43 42 44 43 39 41 43 44 44 42 37 35 34 33 34 34 34 34 34 34 34 35 37 38 39 39 40 40 39 38 37 37 36 35 34 34 33 32 31 29 26 24 23 22 23 24 23 22 22 22 22 23 24 26 28 30 31 32 35 38
46 46 46 46 46 46 46 46 47 47 47 48 50 52 52 53 53 55 58 60 58 56 54 50 45 41 42 43 41 38 39 41 42 42 40 36 34 33 33 33 34 34 34 34 33 34 35 36 37 38 39 40 40 39 38 37 37 36 35 34 33 33 32 31 30 28 25 24 23 22 23 23 21 21 22 22 22 23 25 27 30 31 31 33 35
46 46 46 46 47 47 48 48 49 49 48 48 49 51 52 51 49 51 55 56 55 53 52 48 43 40 41 43 41 37 37 39 40 40 39 36 33 32 32 32 33 34 34 33 33 34 35 36 37 37 38 40 40 38 37 36 36 36 35 34 33 32 32 32 30 29 28 25 24 23 23 22 21 21 22 21 22 23 24 26 29 30 30 32 34
47 48 47 48 48 48 48 48 49 50 50 50 51 52 53 51 48 49 53 54 51 50 49 45 42 39 40 42 40 36 36 37 38 39 37 35 32 31 31 32 32 33 33 33 33 33 35 35 35 36 37 39 39 37 37 36 35 35 35 34 33 32 32 32 31 30 29 27 25 23 23 22 22 21 21 21 21 22 23 24 27 29 30 31 33
49 48 48 48 47 47 48 48 49 50 51 52 53 53 54 53 50 50 53 53 50 48 47 43 40 38 39 41 38 35 35 35 37 37 36 33 31 31 31 31 32 32 32 32 33 33 34 34 34 35 37 38 37 36 36 35 34 35 34 33 32 31 31 32 31 31 30 28 26 24 23 23 22 21 21 21 21 22 23 23 24 27 29 31 32
49 48 47 47 47 47 48 49 49 50 51 52 53 53 54 54 53 51 53 53 51 48 45 42 40 37 38 39 37 33 33 35 36 37 35 32 30 30 31 31 31 31 32 32 32 32 33 34 34 34 36 36 35 35 35 34 34 34 33 32 31 31 30 31 31 31 30 29 27 25 24 23 23 21 21 21 21 22 23 23 23 25 28 31 33
49 47 47 47 48 48 49 49 50 50 51 51 52 53 54 54 54 52 52 53 51 48 45 42 39 36 36 37 35 32 33 35 36 35 32 30 29 30 30 31 31 31 31 31 31 32 32 33 34 35 35 34 33 34 34 34 33 32 32 31 31 30 29 30 30 30 30 29 28 26 24 23 23 22 21 21 21 23 23 23 23 24 27 30 33
48 48 48 48 49 49 50 50 51 51 51 52 52 52 53 53 53 52 51 51 51 48 45 41 39 36 34 34 33 31 32 34 35 33 30 29 29 30 30 31 31 31 31 31 31 31 32 33 34 34 34 33 32 33 33 33 33 31 30 29 29 29 29 29 29 30 30 29 28 27 25 24 23 22 22 22 22 21 21 22 23 24 26 29 33
49 49 49 50 50 50 50 51 52 52 51 51 51 51 52 52 53 53 52 50 48 47 44 41 38 36 33 31 30 30 31 33 33 31 29 29 30 30 30 31 31 31 31 31 31 31 31 32 33 33 33 32 32 32 32 32 31 30 29 28 28 28 28 28 29 29 29 28 27 27 26 24 24 23 22 22 22 21 21 22 24 24 25 28 32
50 50 50 51 51 51 50 51 51 52 52 51 51 51 52 52 52 53 52 49 46 45 43 40 37 35 33 30 28 29 30 31 31 30 30 30 30 31 31 31 31 31 31 31 31 31 30 31 31 32 32 32 32 32 31 31 30 28 27 27 26 27 27 28 28 28 28 28 27 26 26 25 24 23 22 22 22 22 21 23 24 24 25 28 31
51 51 52 52 52 51 51 50 51 51 51 51 51 51 51 51 51 52 51 49 45 43 41 38 36 35 33 29 27 28 29 31 32 31 31 31 31 31 31 30 31 30 30 30 30 29 30 30 30 31 32 31 31 31 31 30 28 27 26 26 26 26 27 27 27 27 27 26 26 26 26 25 24 23 23 22 22 22 22 23 24 24 26 28 30
51 52 52 52 52 51 51 50 50 50 51 51 51 51 50 50 50 50 49 47 45 42 39 37 35 34 33 30 28 28 30 32 32 32 31 31 32 32 31 30 30 30 30 30 29 29 29 30 30 31 31 30 30 30 30 28 27 26 25 25 25 26 26 26 26 25 25 25 25 26 25 25 24 23 23 23 22 22 22 22 23 24 25 28 31
51 52 52 52 52 51 50 50 50 49 50 50 50 50 50 49 49 48 47 45 43 40 38 36 34 33 33 31 29 29 30 32 32 32 32 31 32 34 32 30 30 30 30 29 28 28 29 29 30 30 30 30 30 30 28 27 26 25 25 25 25 25 25 25 24 23 24 24 24 25 25 24 24 23 22 22 22 21 21 21 21 22 24 27 31
51 51 52 52 52 51 51 51 51 51 51 50 50 50 49 48 47 47 45 43 41 38 36 35 33 32 32 32 30 30 31 32 32 32 33 32 32 34 34 31 29 29 29 28 28 28 28 29 29 29 29 30 29 28 28 27 26 25 24 25 25 24 24 24 23 22 23 23 23 24 23 23 23 22 21 21 21 20 20 20 20 21 22 25 29
51 51 52 52 52 52 53 53 52 52 52 51 50 49 49 47 46 45 44 42 39 36 34 34 33 32 32 32 31 31 32 32 32 32 33 33 32 33 34 31 29 28 27 27 28 27 27 28 28 28 28 29 28 27 27 27 25 24 24 24 24 24 23 22 22 22 22 21 21 21 21 21 21 20 20 20 20 20 19 19 19 19 20 22 25
51 52 52 52 52 52 52 53 53 52 52 51 50 49 48 47 45 43 42 40 38 35 34 33 32 31 31 31 31 31 32 32 32 32 33 33 33 33 33 31 29 28 26 26 26 27 27 27 27 28 28 28 27 27 27 26 25 24 24 24 24 23 22 22 21 21 20 19 20 19 19 19 19 19 18 19 20 19 19 18 18 17 18 19 21
51 52 53 52 52 52 52 53 53 53 52 52 50 49 48 47 45 43 41 39 36 35 34 32 32 31 30 29 29 31 32 32 33 33 33 32 33 33 32 30 29 27 26 25 24 25 26 26 26 26 27 27 27 27 26 26 25 25 24 24 24 23 22 22 22 21 19 18 18 18 17 18 18 18 17 17 18 18 17 17 17 17 18 18 19
52 53 52 53 53 52 52 53 52 52 52 52 51 49 48 47 45 42 40 38 35 34 34 33 31 30 30 28 28 30 31 32 33 33 33 33 33 33 31 29 28 27 26 24 23 23 25 26 26 26 26 27 26 26 26 26 25 25 24 24 24 23 22 21 21 21 19 18 17 16 16 16 17 17 16 15 15 16 15 15 16 17 17 17 17
52 52 52 52 53 53 53 53 52 53 52 51 51 49 48 46 45 42 39 37 35 34 33 32 31 30 28 27 27 28 30 31 32 32 33 33 33 32 30 28 27 26 24 24 23 23 24 25 26 26 26 26 26 25 25 26 25 24 24 25 24 23 22 22 21 21 20 18 16 15 15 15 16 15 14 14 15 14 13 14 15 15 14 15 16
51 51 52 52 52 53 53 53 53 52 52 51 50 49 47 46 44 42 38 36 34 33 32 31 29 28 27 25 25 27 29 29 29 31 32 32 31 31 29 27 25 24 23 23 22 23 24 25 26 25 25 26 26 25 25 25 25 24 25 25 23 22 22 22 22 21 20 18 17 16 16 16 15 14 13 13 14 14 12 13 15 14 14 14 15
51 51 51 52 52 53 53 53 52 52 52 51 50 49 47 45 43 41 38 35 34 33 31 29 27 26 25 24 24 26 27 27 28 30 31 31 30 29 27 25 24 23 22 22 22 22 23 24 25 25 24 25 25 25 25 25 24 25 25 24 22 22 23 23 22 22 22 19 18 18 17 16 15 14 13 12 13 14 12 12 13 15 14 14 15
51 52 52 52 53 53 53 52 52 52 51 51 50 48 46 44 42 39 37 34 33 32 30 27 25 23 23 23 23 24 25 26 27 29 30 29 28 27 26 24 23 22 22 21 21 21 22 23 24 24 24 24 24 25 25 24 24 25 25 23 22 24 25 25 24 25 24 21 20 19 18 17 16 14 13 12 12 14 14 12 12 14 15 15 15
52 52 53 53 53 53 53 52 52 51 50 50 49 47 45 43 40 37 35 33 31 30 28 26 23 22 21 22 22 23 24 25 26 27 27 27 26 24 24 23 22 21 21 20 20 20 21 22 23 23 23 24 24 24 25 24 23 24 24 23 24 26 27 28 28 28 26 23 21 19 18 18 17 15 13 12 13 14 15 14 12 12 14 16 16
52 53 53 53 53 53 53 52 51 50 49 48 47 46 44 41 38 35 33 31 30 29 26 23 21 20 20 21 22 22 23 24 25 26 25 25 24 22 22 22 21 20 20 19 19 19 20 21 22 22 23 23 23 24 25 24 24 26 26 26 27 29 30 30 29 28 27 24 22 21 19 18 17 16 14 14 15 16 16 15 13 11 12 14 15
53 53 53 54 54 53 52 51 50 48 47 46 46 45 43 40 37 33 31 29 28 27 25 22 20 19 19 20 21 22 22 23 23 24 23 23 22 21 21 21 21 20 19 19 19 20 20 20 21 22 23 23 25 27 28 28 29 30 30 30 30 30 30 29 29 29 28 26 24 22 20 19 18 17 16 16 17 17 16 15 14 13 12 13 14
53 54 54 53 53 53 52 51 49 48 47 45 44 43 42 39 36 32 29 27 26 24 23 21 19 18 19 20 20 21 21 21 21 22 22 21 20 20 20 20 20 20 20 20 20 21 21 20 21 22 23 24 27 30 32 32 32 32 31 31 31 31 30 29 29 29 28 27 25 24 21 20 20 19 18 18 18 17 16 15 15 15 14 13 14
54 54 53 53 53 52 52 51 50 49 47 45 43 41 39 37 34 30 27 25 24 22 20 19 18 18 18 18 20 20 20 20 20 20 20 19 18 19 19 19 20 21 21 21 21 21 21 21 22 23 24 25 27 30 32 32 32 32 31 32 32 32 30 29 29 30 29 28 27 25 23 22 21 21 20 20 19 18 17 16 17 16 16 15 15
53 53 53 52 52 52 52 52 51 49 46 44 42 40 37 35 31 28 25 24 22 20 18 17 17 17 17 18 19 19 19 18 18 18 18 17 17 17 18 18 19 20 20 19 19 19 20 20 21 22 24 25 27 29 31 31 32 32 32 32 32 31 31 30 30 30 30 29 28 26 25 23 22 22 22 21 21 19 17 17 17 17 18 18 16
53 53 52 52 52 52 52 51 49 48 46 43 40 37 35 33 30 26 23 21 20 17 15 15 16 17 17 17 18 18 17 17 17 16 16 16 16 16 16 17 18 18 18 18 18 18 18 18 17 18 20 23 25 27 29 30 32 33 33 32 31 31 31 31 30 30 30 29 29 27 26 24 24 24 24 23 22 20 19 18 18 19 20 20 18
52 52 52 52 52 52 51 50 48 46 44 42 40 35 30 28 28 25 21 18 18 16 13 14 15 16 16 16 16 16 16 15 14 14 15 15 16 16 16 16 17 18 18 18 18 18 18 18 18 18 20 22 24 26 28 30 31 32 32 31 31 31 30 30 30 29 29 29 28 27 26 25 25 25 25 25 24 22 20 19 20 22 22 21 20
52 51 51 51 51 51 50 49 47 45 43 41 39 36 29 23 21 22 20 16 15 14 13 13 15 15 15 15 15 14 14 13 12 12 14 15 16 16 15 16 16 17 17 18 19 19 19 19 19 20 21 23 24 25 27 28 29 30 30 29 29 30 30 29 29 28 28 27 27 27 26 26 26 25 26 27 26 25 23 22 22 23 23 22 21
50 51 51 50 50 50 49 47 46 45 43 40 37 34 30 23 16 15 17 15 13 13 13 13 14 15 14 14 13 12 12 11 11 12 14 15 15 15 14 15 15 16 17 19 20 21 20 20 20 20 21 22 23 24 26 27 28 29 29 29 29 29 29 28 28 27 27 27 27 27 27 27 27 27 28 28 28 27 26 24 24 24 24 23 23
49 49 49 49 49 48 47 46 45 43 42 39 35 31 28 23 16 12 12 12 11 12 13 14 15 15 14 13 12 11 11 11 11 12 13 14 14 14 15 16 17 18 18 19 21 22 22 21 20 20 21 22 24 25 27 27 28 28 28 29 29 29 29 28 28 28 28 28 28 28 28 28 28 28 28 29 29 29 28 26 25 24 24 24 24
47 47 47 47 47 45 44 44 43 42 40 37 33 29 25 22 18 14 11 11 11 11 12 14 14 14 13 11 10 11 12 12 12 12 13 14 15 14 15 16 17 17 18 19 21 21 21 21 21 21 22 23 25 26 27 27 27 28 28 28 29 29 28 28 28 28 28 28 28 28 28 28 28 28 28 28 29 29 29 27 25 25 25 25 25
45 45 44 44 43 43 42 41 40 40 39 36 31 27 23 21 19 16 13 12 11 11 12 13 13 12 11 9 9 10 11 12 13 14 14 14 13 13 13 14 14 15 16 17 19 20 20 20 20 21 22 22 23 24 25 25 26 26 26 26 26 26 26 27 27 27 27 27 27 28 28 28 28 28 28 28 29 29 29 27 26 26 26 26 26
44 44 43 42 41 41 40 39 38 38 37 35 30 26 22 21 19 17 16 14 13 13 13 12 11 11 11 10 10 11 12 13 14 14 12 11 12 12 13 13 13 13 14 16 18 19 20 19 19 20 20 21 21 22 22 23 23 23 23 23 23 24 24 24 24 25 25 26 26 26 27 27 27 28 28 28 28 29 28 28 27 27 27 27 26
43 43 42 41 40 39 38 37 36 36 35 33 30 26 22 20 19 18 17 15 15 14 14 12 11 12 13 12 12 13 13 14 13 12 11 11 12 12 12 12 12 12 14 15 17 18 18 18 18 19 19 19 20 21 21 22 22 22 22 22 22 22 22 22 22 23 23 24 24 25 25 26 26 27 27 27 27 28 28 28 27 27 27 27 27
41 41 41 40 39 38 37 36 35 34 32 31 30 27 23 20 18 17 17 16 15 15 14 12 12 13 14 13 13 14 14 14 14 13 12 12 12 12 12 12 12 12 13 15 16 16 16 16 17 17 18 18 19 19 20 20 20 20 20 20 20 20 19 19 20 20 21 21 22 23 23 24 24 24 24 24 25 25 26 26 26 26 26 26 26
39 39 39 39 38 37 36 35 34 33 31 30 29 27 24 21 19 17 16 15 14 14 13 13 12 13 13 14 14 15 15 15 15 14 13 13 13 14 14 13 13 13 14 14 15 15 15 15 16 16 17 17 17 18 18 18 18 17 17 17 18 18 18 18 19 19 20 20 21 21 22 22 22 22 22 22 22 23 24 24 25 25 26 26 26
39 38 37 38 37 36 35 35 33 32 31 29 28 26 25 22 20 17 15 14 13 13 13 12 12 12 12 14 15 16 16 16 15 14 13 14 15 15 14 14 14 14 14 14 14 15 15 15 15 16 16 16 16 17 17 17 16 16 15 15 16 17 17 18 19 19 20 20 20 20 21 21 20 20 20 20 20 21 22 22 23 24 25 25 26
38 37 37 37 36 35 34 33 32 31 30 29 28 26 24 22 20 18 16 15 13 12 12 12 11 11 12 13 14 15 15 15 15 15 14 15 16 15 15 14 14 14 14 14 14 15 15 15 15 16 16 15 16 16 16 15 15 15 14 15 15 16 16 17 18 19 20 20 20 20 21 20 20 19 19 19 19 20 20 21 21 22 23 24 25
37 36 36 36 35 35 34 33 32 31 29 28 27 26 24 23 21 19 17 15 14 12 12 11 10 10 11 12 13 14 14 15 16 15 15 15 15 15 15 14 14 14 14 14 14 14 15 15 16 16 16 16 16 16 16 15 15 15 15 15 15 16 16 17 18 18 19 19 20 20 20 21 20 20 19 19 19 19 19 20 20 21 22 23 24
36 36 36 35 35 34 33 32 31 30 29 28 27 26 24 23 21 20 18 16 14 13 12 11 10 10 11 11 12 12 13 14 15 15 15 15 15 15 15 14 14 14 14 14 14 14 15 15 16 16 16 16 16 16 16 16 16 16 16 16 16 16 16 17 17 18 18 19 19 20 20 20 20 20 20 20 20 19 20 20 20 21 21 22 23
36 36 35 34 34 33 32 31 31 30 29 28 26 25 24 23 21 20 18 17 15 14 13 12 11 10 10 11 11 11 12 12 13 14 14 14 14 14 14 14 14 14 14 15 15 15 15 15 16 16 16 17 17 17 17 17 17 17 17 17 17 17 17 17 17 18 18 18 19 19 20 20 20 20 20 20 20 20 20 20 20 21 21 21 22
36 36 35 34 34 32 31 31 30 29 29 27 26 24 24 23 21 20 18 17 16 15 14 13 12 11 11 11 11 11 11 11 11 12 13 13 13 14 14 14 14 14 14 15 15 15 15 15 16 16 17 17 17 17 17 17 17 17 17 17 17 17 17 17 17 17 17 18 18 18 19 19 19 19 20 20 20 20 20 20 21 21 21 22 22
35 35 35 34 33 32 31 30 29 29 28 28 26 25 24 23 22 21 19 18 16 15 14 14 13 12 12 12 11 11 11 11 10 11 12 12 13 13 14 14 14 14 15 15 15 15 15 15 16 16 17 17 17 17 17 17 17 17 17 17 17 17 17 17 17 17 17 17 18 18 18 18 19 19 19 19 19 20 20 20 21 21 21 22 22
34 34 34 33 33 32 31 30 29 28 28 27 27 25 24 23 22 21 20 19 17 16 15 14 13 13 13 13 13 13 12 12 11 11 12 12 13 14 14 14 15 15 15 15 15 15 15 16 16 16 17 17 17 17 17 17 17 17 17 17 17 17 17 17 17 17 17 17 17 18 18 18 18 18 19 19 19 19 19 20 20 20 21 22 22
35 34 34 33 33 32 30 29 28 27 27 26 26 25 24 23 22 21 20 19 18 17 16 15 14 13 12 12 13 13 13 13 13 13 12 13 13 14 14 14 15 15 15 15 16 16 16 16 16 16 16 16 17 17 17 17 17 17 17 17 17 17 18 18 18 17 17 17 17 18 18 18 18 18 19 19 19 19 19 19 20 20 20 21 21
35 34 33 33 33 32 31 30 29 28 27 26 25 24 24 23 22 22 21 20 19 18 16 15 14 14 13 12 12 12 13 13 14 14 14 14 14 14 14 14 14 15 15 15 16 16 16 17 17 17 17 17 17 17 17 17 17 17 17 18 17 17 18 18 18 18 18 18 18 18 18 18 18 18 19 19 19 19 19 19 19 20 20 20 20
34 33 33 32 32 32 31 30 29 28 27 26 25 24 24 22 22 21 20 20 19 18 17 16 15 14 13 13 12 12 12 13 13 13 14 14 14 14 15 15 15 15 15 15 15 15 16 16 17 17 17 17 18 18 18 18 18 18 18 18 18 18 18 18 18 18 18 18 18 18 18 18 18 19 19 19 19 19 19 19 19 20 20 20 20
34 33 32 31 31 31 30 30 29 28 27 26 25 25 24 23 22 21 20 20 19 19 18 17 16 15 14 13 12 12 12 12 12 13 13 13 13 14 14 15 15 15 14 14 15 15 15 15 16 16 17 17 18 18 19 19 19 19 19 19 19 19 19 19 19 19 19 18 18 18 18 18 18 19 19 19 20 19 20 20 20 20 20 20 20
Wind_Direction
321 321 321 321 321 320 318 318 317 317 315 314 314 315 316 317 315 313 312 311 310 309 309 307 304 301 297 294 291 288 286 278 265 255 252 253 258 266 272 273 270 268 267 265 263 260 257 254 253 251 250 249 249 249 250 251 253 255 257 259 261 263 265 267 268 267 268 269 270 272 272 271 269 269 267 261 256 251 247 245 243 241 237 233 231
322 322 321 320 319 318 317 317 317 316 315 314 313 313 314 314 313 311 308 309 310 310 309 307 305 301 297 296 293 286 282 274 262 254 251 253 258 266 271 271 270 269 267 265 262 261 259 256 254 251 249 249 248 248 248 249 251 253 255 257 259 261 263 265 267 267 267 269 270 271 271 272 271 269 267 263 258 252 247 245 244 242 239 235 232
321 320 320 319 319 318 318 318 317 317 317 316 314 313 312 311 310 308 306 308 309 309 308 307 304 301 298 298 294 286 279 269 258 252 251 253 259 267 271 270 269 269 267 265 262 260 259 257 255 253 250 249 247 247 247 247 249 252 253 256 258 260 262 263 265 266 267 268 269 270 271 272 272 270 269 266 260 255 249 245 244 243 241 237 233
321 320 319 320 319 319 318 318 318 318 319 319 316 314 312 312 311 308 307 310 310 308 308 306 303 301 299 299 295 286 277 265 255 250 250 253 261 269 271 269 269 269 267 265 263 261 260 258 256 254 252 250 247 246 247 247 248 250 251 254 256 259 260 261 263 264 265 266 268 269 271 271 270 269 268 267 262 258 253 248 245 243 241 239 235
320 319 319 319 319 319 319 320 321 321 320 319 318 316 315 314 313 310 310 311 311 308 307 305 301 301 301 300 294 285 274 262 252 249 249 254 263 269 270 269 269 268 266 264 263 262 261 260 257 254 252 250 248 246 246 246 247 248 250 252 254 256 258 259 261 262 263 264 265 267 269 270 270 268 268 267 263 259 255 250 246 243 242 240 237
319 319 319 320 320 321 322 322 322 321 320 319 318 317 317 317 316 314 311 312 312 308 306 303 300 299 302 301 294 283 270 258 249 247 249 256 265 269 270 269 268 267 265 263 262 262 261 260 258 255 251 249 247 245 245 244 245 247 248 251 254 254 255 257 259 261 262 263 263 265 267 269 269 268 267 266 263 261 257 251 246 242 240 240 238
319 320 320 321 322 322 322 321 320 320 319 319 318 318 318 317 317 315 312 311 311 308 304 302 299 298 301 301 294 282 268 255 247 245 250 259 266 270 270 269 268 266 264 262 261 260 259 258 257 255 252 248 245 244 243 243 244 245 247 250 253 253 254 255 257 259 261 262 262 263 265 266 267 267 265 264 263 261 260 257 251 245 241 239 239
320 321 322 322 321 320 320 320 319 319 319 318 318 318 317 316 316 316 313 311 309 307 303 301 298 297 300 301 294 282 268 255 247 247 253 261 266 268 269 268 267 265 263 261 260 258 258 257 256 255 253 248 244 242 241 241 242 243 244 248 251 251 252 253 255 258 260 261 261 261 263 264 265 264 264 264 263 262 262 260 255 248 243 241 239
321 322 321 321 320 320 320 319 319 318 318 318 317 317 316 316 317 317 315 311 308 305 301 299 297 295 297 298 292 281 267 255 249 251 257 262 265 267 267 266 265 263 261 260 260 258 257 256 256 255 252 247 243 241 240 239 240 241 243 246 247 248 250 251 254 256 258 260 261 260 261 262 262 263 263 264 264 262 257 256 254 249 244 241 239
321 321 321 321 321 321 320 319 318 318 318 318 318 318 317 317 317 317 316 312 307 303 299 296 295 294 293 293 288 277 265 254 252 255 260 263 265 266 266 265 263 261 260 259 259 259 258 257 256 254 250 245 242 240 239 239 239 240 242 244 244 245 248 250 252 254 256 258 260 260 259 260 261 261 262 263 262 260 256 255 256 253 247 242 239
321 321 321 321 321 321 320 319 318 318 318 318 318 318 317 317 317 316 315 312 306 302 298 295 294 291 290 288 283 272 260 254 254 259 263 265 266 265 264 264 262 260 259 259 259 258 257 256 254 252 248 244 241 240 239 238 237 238 240 241 241 242 245 248 251 254 256 257 259 259 258 259 260 260 260 261 261 259 257 256 256 254 249 244 240
321 321 321 321 321 321 321 320 319 319 319 318 318 318 317 317 316 315 314 311 306 301 297 294 291 289 287 284 278 266 257 254 257 262 266 267 267 266 263 262 261 260 258 258 258 257 255 254 252 250 247 243 240 240 238 236 235 235 236 237 238 240 243 247 250 252 254 256 257 258 258 258 259 259 259 260 260 259 257 257 258 257 253 247 241
321 321 321 321 322 322 321 321 320 320 319 319 318 318 318 317 316 316 314 311 306 301 296 293 289 287 284 280 273 263 255 254 259 265 267 267 267 267 264 260 258 259 258 257 256 255 253 252 250 248 244 241 239 239 237 235 232 232 232 233 235 239 242 246 249 251 253 254 255 257 258 258 259 259 258 259 260 259 258 258 259 260 258 252 245
321 321 321 322 322 323 322 322 322 322 321 320 320 319 318 318 317 316 314 310 306 300 294 291 288 284 282 278 271 261 255 255 260 265 268 267 265 265 265 261 256 255 256 256 255 253 252 250 249 245 242 239 238 237 235 233 231 229 229 231 234 238 242 245 247 248 249 252 254 256 257 257 259 259 258 258 258 258 256 256 257 259 260 256 251
322 322 322 323 324 324 323 323 323 323 322 322 321 320 319 319 318 316 313 309 305 299 293 289 286 283 280 277 270 260 254 255 260 264 267 268 264 262 263 262 258 254 253 254 254 253 250 248 247 244 240 237 236 234 233 232 229 227 228 230 232 237 241 246 247 247 247 248 251 255 256 256 257 259 259 258 257 256 255 254 256 259 260 259 256
323 323 324 324 325 325 324 323 323 323 322 322 322 321 320 319 319 316 312 308 304 298 292 287 285 281 278 275 268 259 254 257 261 265 267 266 263 260 260 261 259 256 252 250 251 252 250 246 244 242 238 235 234 233 231 229 226 225 227 229 230 234 238 242 244 245 247 249 251 254 255 255 256 257 258 258 257 256 254 254 256 259 259 258 256
324 325 325 325 325 325 324 324 323 323 323 323 323 322 321 320 319 316 312 308 303 297 292 288 285 281 276 273 267 258 255 258 262 265 266 264 261 259 259 259 258 256 253 249 246 247 248 246 241 239 236 233 232 231 229 225 222 223 227 228 229 232 234 237 240 242 243 246 251 255 257 257 257 256 257 259 260 260 258 255 254 255 256 256 255
325 326 325 325 325 325 325 325 324 323 323 323 323 323 322 320 318 316 312 308 302 296 291 289 286 281 275 270 264 257 255 257 262 265 265 262 258 257 257 256 255 254 254 251 246 242 244 243 239 235 233 231 230 229 227 223 220 223 227 228 228 230 231 233 238 242 241 242 248 253 257 258 258 259 260 262 262 262 261 258 253 255 260 261 258
325 326 326 326 326 326 326 325 325 324 324 324 323 323 322 320 318 316 313 308 301 295 291 288 287 282 275 267 261 256 255 257 262 265 263 259 256 256 255 254 253 253 252 251 247 241 239 239 237 233 229 227 227 226 224 221 220 223 227 228 227 227 229 230 235 241 243 245 249 253 255 255 256 258 261 264 264 261 258 256 254 254 257 259 257
326 327 326 326 327 327 327 326 326 325 325 324 324 323 321 320 318 315 313 307 301 296 291 288 286 281 274 265 258 255 256 258 261 262 260 256 254 255 254 253 252 252 250 248 245 240 237 236 234 231 227 225 224 222 219 220 222 224 228 229 227 226 228 230 234 240 244 248 253 255 256 256 255 253 255 260 266 266 258 252 250 250 250 252 254
327 327 327 327 328 328 327 327 326 326 326 325 324 323 321 319 317 315 312 307 302 297 292 288 285 280 272 263 257 255 257 259 260 259 256 254 253 254 254 253 252 251 250 247 243 239 235 233 232 229 226 224 223 219 215 217 223 228 229 228 226 227 229 231 235 240 242 245 250 253 257 260 261 259 257 258 263 266 262 251 245 244 245 247 248
328 329 329 329 329 328 328 328 328 328 327 326 324 322 319 318 316 314 311 307 302 297 292 288 283 277 270 262 257 256 257 259 258 256 254 252 251 253 254 252 250 249 247 244 241 237 233 230 228 226 224 222 222 219 214 213 221 229 231 228 227 228 231 232 235 240 241 241 244 248 252 257 262 264 264 263 263 265 264 255 243 238 238 240 242
330 331 330 330 330 329 329 330 330 329 328 326 322 320 318 317 317 314 311 307 302 297 292 287 282 276 268 262 258 257 257 259 258 254 251 250 250 251 252 251 249 247 245 241 237 233 229 226 225 225 223 221 218 216 214 212 217 226 230 230 229 228 230 233 236 240 243 243 244 246 249 252 257 260 261 261 260 261 261 259 249 238 234 236 238
331 331 331 330 330 331 331 331 331 329 327 325 322 320 318 318 317 315 311 306 301 296 291 285 280 274 268 261 259 258 259 259 256 252 249 249 249 249 250 249 248 244 241 236 232 228 226 224 223 223 223 220 215 213 213 213 215 219 223 227 229 229 231 235 238 242 246 248 247 249 250 252 253 255 255 254 253 253 256 259 258 247 235 232 234
331 331 331 331 331 331 331 331 330 329 328 326 323 321 319 319 318 315 311 306 300 295 290 284 277 271 266 262 260 261 260 257 253 250 248 248 248 247 246 247 246 243 237 231 226 224 223 221 220 221 221 218 212 209 210 211 213 215 219 225 231 233 234 237 241 244 248 250 250 251 252 252 253 253 252 250 248 247 250 255 258 255 244 232 228
332 332 331 332 331 331 331 331 331 331 330 328 325 322 320 319 318 316 312 306 299 294 288 283 275 267 264 264 264 263 259 254 250 250 250 249 247 246 244 244 243 239 234 226 222 221 220 219 219 219 219 217 215 214 214 215 216 218 220 224 230 234 237 239 243 247 249 251 252 252 250 248 249 250 250 250 249 247 244 244 247 250 249 239 227
332 331 332 332 332 332 332 333 333 332 331 329 326 324 321 320 319 317 312 305 298 292 286 281 275 270 268 269 268 263 256 251 250 250 250 249 246 244 242 240 238 237 233 229 225 222 220 219 221 222 220 218 218 220 221 222 223 224 225 226 229 234 238 240 244 247 250 251 251 251 249 247 247 247 247 248 251 252 248 244 243 244 247 244 234
332 332 332 333 333 334 335 335 334 333 332 330 328 326 323 321 319 317 312 305 298 291 284 280 277 274 273 270 265 259 254 251 250 249 249 248 245 242 240 237 236 237 237 235 231 227 225 224 225 226 224 222 222 223 224 224 225 227 228 229 231 234 236 238 241 244 247 249 249 249 248 247 247 248 247 246 248 251 251 249 245 243 244 246 241
333 333 333 334 335 336 336 335 335 334 333 331 329 328 326 322 319 317 312 304 296 288 281 277 275 272 270 265 259 256 254 252 251 251 250 247 243 241 238 235 233 234 234 234 232 230 230 230 227 226 225 225 225 225 224 225 226 227 228 230 232 235 237 240 241 243 244 246 246 246 246 244 245 247 249 249 247 248 249 249 246 243 243 245 244
333 334 335 336 337 337 336 336 336 336 335 333 331 330 329 323 318 316 313 303 292 285 279 275 271 268 264 260 257 255 255 254 254 254 252 247 242 238 235 233 231 230 230 231 232 231 231 231 228 225 224 224 225 225 225 225 226 228 230 232 234 236 239 241 242 243 242 243 244 244 245 244 243 245 248 251 250 249 247 246 246 245 244 243 242
334 335 337 338 338 337 336 337 339 339 338 336 333 332 331 327 318 313 311 304 291 282 278 274 270 264 259 256 256 256 254 253 251 249 247 244 241 236 233 232 232 231 231 232 235 235 234 233 232 228 226 226 227 227 227 228 229 230 232 235 237 238 239 240 242 243 243 243 243 243 243 243 242 242 244 248 250 249 246 244 244 246 247 244 241
335 336 337 338 338 338 339 340 341 342 341 340 337 334 332 331 325 315 310 305 294 284 279 274 268 263 257 254 255 255 253 250 246 243 241 240 238 236 235 234 233 233 233 234 237 239 238 236 235 233 231 230 230 231 232 232 232 232 233 234 237 239 240 241 243 243 244 243 242 241 241 241 240 240 241 244 247 248 247 243 241 243 246 245 242
336 337 338 338 338 340 341 341 343 344 344 342 341 338 335 335 335 326 314 307 298 288 279 272 266 262 259 257 257 255 252 247 243 240 239 236 233 232 232 233 234 235 235 236 238 240 241 241 240 238 236 235 234 235 235 235 236 236 236 236 238 241 243 244 244 243 243 243 242 241 241 240 240 240 240 242 244 246 246 244 241 241 242 244 242
337 337 338 338 339 341 342 343 344 346 345 344 343 342 341 342 342 339 328 316 304 291 281 275 270 264 261 261 260 258 254 249 244 240 237 235 234 233 233 236 239 241 242 243 244 245 246 245 243 241 239 238 238 239 239 239 240 241 241 241 241 242 243 243 243 243 243 243 243 243 243 242 241 241 241 241 243 244 245 244 241 240 240 241 241
337 337 338 339 340 342 344 345 346 347 346 345 344 345 347 349 347 344 337 325 311 297 287 281 275 267 259 255 254 253 251 247 245 245 243 242 241 240 239 239 241 242 244 247 248 248 247 246 245 244 243 242 242 243 243 243 242 242 242 242 242 241 241 242 242 242 242 242 242 243 243 243 243 242 241 241 241 243 245 244 241 239 239 239 238
337 338 338 340 342 343 345 347 348 347 346 345 344 345 348 350 348 344 337 327 315 303 293 283 274 262 251 245 245 246 245 244 246 251 254 250 246 244 243 244 245 243 243 245 246 247 246 245 245 244 243 242 243 242 241 241 241 241 241 241 240 240 240 240 240 239 239 240 241 241 242 243 242 242 241 240 240 241 243 242 240 238 237 237 236
338 338 338 341 343 344 346 348 349 348 347 345 343 342 344 346 345 341 334 326 317 307 297 285 271 258 250 246 245 247 249 250 251 253 252 248 247 250 252 253 253 250 246 245 245 246 245 242 239 239 239 238 239 240 239 239 239 239 239 238 237 236 236 237 237 238 238 239 239 239 240 241 241 240 240 238 237 238 238 238 237 235 235 234 232
339 339 340 342 343 344 346 348 348 348 347 345 343 341 339 340 341 339 334 327 319 310 301 289 276 266 260 256 252 251 252 253 253 252 249 248 251 254 255 256 257 253 248 247 246 246 244 240 237 236 236 236 237 237 238 237 237 236 235 234 233 232 231 232 233 234 236 237 237 237 237 238 237 237 236 234 233 232 233 233 233 232 231 230 228
340 340 342 343 343 344 346 347 348 348 347 345 345 342 339 337 338 337 334 329 321 312 304 295 284 276 270 264 260 258 257 257 257 258 257 255 254 253 254 257 258 254 249 247 247 246 244 240 237 235 236 236 237 237 236 235 233 232 231 230 229 228 228 228 229 231 233 234 235 235 235 233 233 232 231 229 227 226 226 227 227 227 227 226 223
340 342 343 343 344 345 346 346 347 348 347 345 345 344 341 339 337 335 334 330 324 315 308 301 293 284 277 270 267 267 266 266 266 264 260 258 257 257 257 257 256 254 252 248 246 245 244 240 236 235 235 236 237 236 234 233 232 231 230 229 229 228 227 226 227 227 228 230 231 233 233 231 229 228 227 226 224 223 222 222 222 223 223 221 219
341 343 344 344 344 345 345 345 347 348 348 346 344 344 343 341 338 336 333 330 325 318 311 306 300 292 284 277 273 271 271 271 270 267 263 261 261 262 262 259 257 256 254 249 245 244 241 239 238 236 235 236 235 234 233 233 233 232 232 231 231 230 229 228 228 227 227 227 228 229 230 230 228 227 226 226 225 223 221 220 220 220 220 219 218
343 344 345 345 345 345 345 346 346 347 348 347 345 343 343 342 340 337 333 329 325 320 314 308 303 296 289 283 279 276 273 271 271 270 268 267 266 266 265 262 258 256 253 249 246 243 240 239 238 236 235 234 233 232 232 232 233 234 234 232 232 232 231 230 230 229 228 227 227 228 229 229 228 227 227 226 226 224 222 220 219 219 219 219 219
345 346 346 347 347 346 346 346 345 346 347 348 346 344 343 342 341 338 334 330 325 320 314 309 303 297 292 287 284 282 278 276 274 272 271 270 268 268 266 263 259 257 254 250 246 243 240 239 238 236 236 235 233 232 233 233 234 236 236 235 234 232 231 231 231 230 229 228 228 228 228 228 228 228 228 227 227 226 224 223 221 220 220 220 220
345 347 347 348 348 348 347 345 345 346 347 348 347 345 343 342 341 339 336 332 327 321 315 309 303 297 292 288 286 284 281 279 278 276 274 271 268 267 265 263 260 257 254 251 248 244 241 239 237 236 236 235 234 234 234 234 235 236 236 236 235 233 232 231 231 230 230 229 228 228 228 228 228 228 228 228 228 227 226 225 223 222 222 221 222
346 347 347 348 348 349 348 346 346 345 346 346 347 346 344 342 341 340 337 334 329 324 318 312 305 298 291 286 283 281 279 277 275 274 272 271 268 266 264 262 260 257 255 252 249 246 244 242 239 238 237 236 235 235 235 235 235 235 234 235 235 234 233 232 231 231 230 229 228 228 228 227 228 228 227 228 228 228 227 226 225 224 224 223 222
346 347 347 347 348 348 348 348 347 346 345 345 346 346 345 344 342 341 339 336 333 328 322 317 311 304 296 289 283 279 276 272 268 266 265 265 265 264 262 260 259 256 254 252 250 248 246 244 242 240 239 238 237 237 236 236 236 235 234 234 234 233 233 233 231 231 231 230 229 229 228 228 228 228 226 226 227 227 227 227 225 224 224 224 223
347 347 347 347 348 348 348 349 348 347 346 346 345 346 346 345 343 342 341 339 336 331 326 321 315 309 303 296 289 283 278 272 265 261 258 257 257 257 257 257 256 255 254 253 252 250 247 245 244 242 241 240 239 238 237 236 236 235 234 234 234 233 233 232 231 231 231 230 229 229 228 228 228 227 226 226 225 225 225 226 226 225 224 223 223
346 346 346 347 347 347 348 349 349 348 347 346 346 346 346 344 343 342 341 339 337 334 330 324 319 313 307 301 295 290 285 279 274 267 260 256 254 253 252 252 253 253 253 253 253 252 250 249 246 245 244 243 241 240 239 237 235 234 234 234 234 233 232 231 230 230 230 229 228 227 227 226 226 226 226 225 224 224 223 224 224 225 224 224 223
346 345 345 346 346 347 347 348 349 349 348 347 347 347 346 345 344 342 341 340 338 336 333 328 323 318 312 305 299 294 289 285 281 276 270 264 259 256 253 250 249 249 250 250 250 251 251 250 249 247 246 245 244 243 242 239 237 235 234 233 233 232 231 230 229 228 228 227 227 226 225 224 224 224 223 223 223 222 222 221 222 223 223 223 223
346 345 344 345 345 346 347 348 349 349 349 348 348 347 347 347 345 343 341 340 339 337 334 331 326 321 316 311 304 297 291 287 283 279 276 272 267 263 259 254 250 248 246 245 246 246 246 247 248 248 247 246 245 244 243 241 239 237 235 234 232 232 231 230 229 228 227 226 226 225 225 224 223 222 222 222 222 221 221 220 220 221 221 221 222
347 346 345 344 344 344 345 346 347 348 348 349 348 348 348 347 346 344 342 341 340 338 336 333 329 324 319 314 309 302 296 291 286 281 278 274 269 266 263 259 255 252 248 245 243 242 240 240 241 242 242 243 244 243 243 242 240 238 237 236 234 233 231 230 230 229 228 227 226 225 224 223 223 222 222 221 221 221 221 220 220 220 219 219 220
Height
2945 2941 2937 2934 2930 2927 2924 2920 2917 2913 2909 2904 2899 2895 2891 2887 2883 2878 2874 2871 2868 2865 2861 2857 2853 2849 2847 2845 2843 2840 2838 2838 2838 2839 2840 2842 2843 2844 2845 2844 2844 2845 2846 2847 2849 2850 2852 2853 2854 2856 2857 2858 2859 2860 2862 2863 2864 2865 2866 2867 2868 2870 2870 2870 2871 2873 2873 2872 2872 2872 2871 2871 2871 2871 2871 2871 2871 2872 2873 2874 2875 2877 2879 2882 2884
2940 2936 2932 2929 2925 2922 2918 2915 2911 2907 2903 2899 2894 2890 2886 2883 2878 2873 2869 2865 2862 2858 2854 2850 2847 2843 2841 2840 2837 2834 2832 2832 2833 2834 2836 2837 2838 2839 2839 2839 2839 2839 2840 2841 2843 2844 2845 2847 2849 2851 2852 2853 2854 2855 2857 2858 2859 2860 2862 2863 2864 2865 2866 2866 2867 2868 2869 2869 2868 2868 2868 2868 2868 2867 2867 2867 2868 2869 2869 2870 2871 2873 2875 2877 2879
2935 2931 2927 2924 2920 2916 2913 2909 2904 2900 2897 2892 2888 2884 2880 2877 2874 2869 2864 2860 2856 2851 2847 2843 2840 2837 2836 2834 2831 2828 2827 2827 2828 2829 2831 2832 2833 2833 2833 2834 2834 2834 2835 2836 2837 2839 2840 2841 2843 2845 2846 2847 2849 2850 2852 2853 2854 2855 2857 2858 2859 2860 2861 2862 2863 2864 2864 2865 2865 2864 2864 2864 2865 2864 2864 2864 2864 2865 2866 2867 2868 2869 2871 2872 2874
2930 2926 2922 2918 2915 2911 2907 2903 2898 2893 2889 2885 2881 2877 2873 2870 2868 2863 2857 2853 2849 2845 2841 2837 2834 2832 2830 2828 2826 2823 2822 2822 2823 2825 2826 2828 2828 2828 2828 2828 2829 2829 2829 2830 2832 2833 2834 2836 2838 2840 2841 2841 2844 2846 2847 2848 2850 2851 2852 2853 2854 2856 2856 2857 2858 2859 2860 2861 2861 2861 2860 2861 2861 2861 2861 2861 2861 2862 2863 2864 2865 2865 2867 2868 2869
2924 2920 2917 2913 2909 2906 2901 2897 2892 2887 2882 2878 2874 2870 2865 2862 2859 2855 2851 2847 2843 2839 2835 2832 2829 2826 2825 2823 2820 2818 2817 2817 2819 2820 2822 2823 2823 2823 2823 2823 2823 2824 2824 2825 2826 2827 2829 2830 2832 2834 2835 2836 2839 2841 2842 2844 2845 2846 2847 2848 2850 2851 2852 2853 2854 2855 2856 2857 2857 2857 2857 2857 2858 2858 2858 2858 2858 2858 2859 2860 2861 2862 2863 2863 2865
2918 2915 2911 2907 2903 2899 2895 2890 2886 2881 2876 2872 2868 2863 2858 2854 2851 2848 2844 2840 2836 2833 2829 2826 2823 2821 2819 2817 2815 2813 2813 2813 2814 2816 2817 2818 2818 2818 2818 2818 2818 2819 2819 2820 2821 2823 2824 2825 2826 2828 2830 2832 2834 2836 2837 2839 2840 2841 2842 2844 2845 2846 2847 2848 2849 2850 2851 2852 2853 2854 2853 2853 2854 2855 2855 2855 2855 2855 2855 2856 2857 2858 2859 2860 2861
2912 2908 2905 2901 2897 2893 2889 2885 2880 2875 2871 2866 2861 2856 2851 2847 2844 2841 2837 2833 2829 2826 2823 2820 2818 2816 2814 2812 2810 2809 2809 2809 2810 2811 2813 2814 2814 2813 2813 2813 2813 2814 2814 2815 2817 2818 2819 2820 2821 2822 2824 2827 2829 2830 2832 2833 2835 2836 2838 2839 2840 2841 2843 2844 2845 2846 2847 2848 2849 2850 2850 2850 2850 2851 2851 2851 2851 2851 2852 2853 2854 2855 2856 2857 2858
2906 2903 2899 2895 2891 2887 2883 2879 2874 2869 2864 2860 2855 2850 2846 2841 2838 2834 2831 2827 2823 2820 2817 2815 2813 2810 2809 2807 2806 2805 2804 2805 2806 2808 2809 2809 2809 2809 2808 2808 2809 2809 2809 2810 2811 2813 2814 2815 2816 2818 2819 2822 2824 2825 2827 2828 2830 2832 2834 2835 2835 2837 2838 2839 2840 2841 2842 2844 2845 2846 2846 2846 2846 2846 2847 2847 2848 2848 2849 2849 2850 2851 2852 2853 2854
2901 2897 2893 2889 2885 2881 2877 2872 2867 2863 2858 2854 2849 2845 2840 2836 2831 2828 2824 2821 2817 2814 2811 2809 2807 2805 2804 2802 2801 2801 2801 2801 2803 2804 2804 2804 2804 2804 2804 2804 2804 2804 2805 2806 2806 2808 2810 2811 2812 2814 2815 2817 2819 2820 2822 2824 2825 2828 2829 2831 2831 2833 2834 2835 2836 2837 2838 2839 2840 2841 2842 2842 2842 2843 2843 2844 2845 2845 2846 2846 2846 2847 2848 2849 2851
2895 2891 2887 2883 2879 2875 2871 2866 2861 2856 2851 2847 2843 2838 2834 2830 2825 2821 2817 2814 2811 2808 2805 2804 2802 2800 2799 2797 2797 2797 2797 2798 2799 2799 2799 2799 2799 2799 2799 2799 2799 2800 2800 2801 2802 2803 2805 2807 2808 2809 2811 2812 2813 2815 2817 2819 2821 2823 2825 2826 2827 2829 2830 2831 2832 2833 2834 2835 2836 2837 2838 2838 2838 2839 2840 2840 2841 2841 2842 2842 2842 2843 2844 2846 2847
2889 2884 2880 2877 2873 2868 2864 2859 2854 2850 2845 2841 2836 2832 2828 2824 2819 2815 2811 2807 2804 2801 2799 2798 2797 2795 2794 2793 2792 2792 2793 2795 2795 2795 2794 2794 2794 2794 2794 2794 2794 2795 2796 2796 2798 2799 2800 2802 2804 2805 2806 2807 2809 2811 2813 2815 2817 2819 2821 2822 2823 2825 2826 2827 2829 2829 2830 2831 2832 2832 2833 2834 2835 2836 2837 2837 2837 2838 2839 2839 2839 2840 2841 2842 2844
2883 2878 2874 2870 2866 2862 2857 2853 2848 2844 2839 2834 2830 2826 2822 2818 2813 2809 2805 2801 2798 2795 2793 2792 2791 2790 2788 2788 2787 2787 2788 2790 2791 2791 2790 2789 2788 2789 2790 2790 2790 2790 2791 2792 2793 2795 2796 2798 2800 2801 2802 2803 2805 2806 2808 2811 2813 2815 2817 2818 2820 2821 2823 2824 2825 2826 2827 2828 2828 2828 2829 2830 2831 2832 2833 2834 2834 2835 2835 2835 2836 2837 2837 2838 2839
2877 2873 2869 2864 2860 2856 2851 2846 2842 2838 2833 2829 2824 2820 2816 2812 2807 2803 2799 2795 2792 2789 2787 2786 2786 2785 2784 2783 2782 2782 2784 2785 2786 2786 2786 2785 2784 2783 2784 2786 2786 2786 2787 2788 2789 2790 2792 2793 2795 2797 2798 2799 2800 2802 2805 2807 2809 2811 2813 2814 2816 2818 2819 2820 2822 2823 2824 2825 2825 2825 2826 2826 2827 2828 2829 2830 2831 2832 2832 2832 2833 2833 2833 2834 2835
2872 2867 2863 2858 2854 2849 2845 2840 2835 2831 2827 2822 2818 2814 2810 2805 2801 2797 2793 2790 2787 2784 2782 2780 2780 2779 2779 2778 2777 2778 2779 2780 2781 2781 2781 2781 2780 2778 2778 2781 2782 2782 2783 2784 2785 2786 2788 2789 2791 2793 2794 2795 2797 2799 2801 2803 2805 2807 2809 2811 2813 2814 2815 2817 2819 2820 2821 2821 2822 2822 2822 2823 2823 2824 2825 2827 2827 2828 2829 2829 2829 2830 2830 2830 2831
2865 2861 2857 2852 2848 2843 2838 2834 2829 2825 2820 2816 2811 2807 2803 2799 2795 2791 2787 2784 2781 2779 2777 2775 2774 2774 2773 2773 2773 2773 2775 2776 2776 2776 2776 2776 2776 2774 2774 2776 2778 2779 2779 2780 2781 2782 2784 2785 2787 2788 2790 2791 2793 2796 2798 2799 2802 2804 2806 2808 2809 2811 2812 2814 2815 2817 2818 2819 2819 2819 2819 2820 2820 2821 2822 2823 2824 2824 2825 2826 2826 2827 2827 2827 2828
2859 2854 2850 2846 2842 2837 2832 2827 2823 2818 2814 2809 2805 2801 2796 2792 2789 2785 2781 2779 2776 2774 2771 2770 2769 2768 2768 2768 2768 2769 2771 2772 2771 2771 2771 2772 2771 2770 2770 2771 2773 2774 2776 2777 2777 2778 2779 2781 2783 2784 2786 2788 2790 2792 2794 2796 2798 2800 2802 2805 2806 2808 2810 2811 2812 2813 2815 2815 2816 2816 2816 2817 2817 2818 2818 2819 2819 2820 2822 2823 2823 2823 2823 2824 2825
2853 2848 2844 2840 2835 2831 2826 2821 2816 2812 2807 2803 2798 2794 2790 2786 2782 2779 2776 2773 2771 2768 2766 2764 2764 2763 2763 2763 2763 2765 2766 2767 2767 2767 2767 2767 2767 2766 2767 2768 2769 2770 2771 2772 2774 2774 2775 2777 2778 2780 2782 2785 2787 2789 2791 2793 2795 2797 2799 2801 2803 2805 2807 2808 2809 2811 2812 2813 2813 2813 2814 2814 2814 2815 2816 2816 2816 2817 2818 2819 2820 2820 2820 2820 2821
2847 2843 2838 2834 2829 2825 2820 2815 2811 2806 2802 2797 2792 2788 2784 2780 2777 2774 2771 2768 2765 2763 2760 2758 2758 2758 2758 2758 2758 2760 2761 2763 2763 2762 2763 2763 2762 2762 2763 2764 2765 2766 2767 2768 2769 2771 2771 2772 2774 2776 2779 2781 2783 2785 2788 2790 2792 2794 2796 2798 2800 2802 2804 2805 2806 2807 2809 2810 2810 2811 2811 2812 2812 2812 2813 2814 2814 2814 2815 2816 2816 2817 2817 2818 2819
2842 2838 2833 2829 2824 2819 2814 2810 2805 2800 2796 2791 2786 2782 2778 2775 2771 2768 2765 2762 2760 2757 2755 2753 2753 2753 2753 2753 2753 2755 2757 2758 2758 2758 2759 2759 2758 2759 2760 2761 2762 2763 2763 2764 2765 2767 2767 2768 2770 2773 2775 2778 2780 2782 2785 2787 2789 2791 2793 2795 2797 2800 2801 2803 2804 2805 2806 2807 2808 2809 2809 2809 2810 2810 2811 2811 2811 2812 2813 2813 2813 2814 2815 2815 2816
2837 2833 2828 2824 2819 2814 2809 2804 2800 2795 2790 2785 2781 2776 2773 2769 2766 2762 2760 2757 2754 2752 2750 2748 2747 2748 2748 2748 2749 2750 2752 2753 2754 2754 2754 2755 2755 2755 2756 2757 2758 2759 2759 2760 2761 2762 2764 2765 2767 2769 2772 2774 2776 2779 2782 2784 2786 2788 2790 2792 2795 2798 2798 2800 2801 2802 2803 2804 2805 2806 2806 2807 2808 2808 2809 2809 2809 2810 2811 2811 2811 2811 2812 2813 2813
2833 2828 2823 2819 2814 2809 2804 2799 2794 2789 2784 2779 2774 2771 2767 2764 2760 2757 2754 2751 2749 2747 2745 2743 2743 2743 2743 2744 2745 2746 2747 2749 2750 2750 2750 2751 2751 2751 2752 2754 2754 2755 2755 2756 2757 2759 2760 2762 2764 2766 2769 2771 2774 2776 2779 2781 2783 2785 2787 2790 2793 2794 2795 2797 2798 2799 2800 2802 2803 2803 2804 2804 2805 2806 2807 2807 2807 2807 2808 2809 2809 2809 2810 2811 2811
2827 2822 2818 2813 2808 2804 2799 2794 2788 2783 2778 2773 2769 2765 2762 2759 2755 2752 2748 2746 2744 2742 2740 2739 2738 2739 2740 2740 2741 2742 2743 2744 2745 2746 2746 2747 2748 2748 2749 2750 2750 2751 2752 2753 2754 2756 2757 2759 2761 2763 2765 2768 2771 2774 2776 2779 2781 2782 2784 2787 2790 2791 2792 2794 2795 2796 2797 2799 2801 2801 2802 2802 2803 2804 2804 2805 2805 2805 2805 2806 2807 2808 2808 2809 2809
2822 2817 2812 2808 2803 2798 2793 2788 2783 2777 2773 2768 2764 2760 2757 2754 2750 2746 2743 2741 2738 2737 2736 2735 2734 2735 2736 2737 2738 2738 2739 2740 2741 2742 2743 2743 2744 2745 2745 2746 2746 2747 2748 2750 2751 2753 2754 2756 2758 2760 2763 2765 2769 2771 2774 2777 2778 2780 2782 2784 2786 2787 2788 2790 2791 2792 2794 2796 2798 2799 2800 2801 2801 2802 2803 2803 2803 2803 2803 2804 2805 2806 2806 2807 2808
2817 2813 2808 2803 2798 2793 2788 2783 2778 2773 2769 2765 2760 2756 2752 2748 2745 2742 2739 2736 2734 2732 2732 2731 2731 2731 2733 2734 2734 2735 2736 2737 2738 2738 2739 2740 2741 2742 2742 2742 2743 2744 2745 2747 2749 2750 2752 2753 2755 2758 2760 2763 2766 2769 2772 2774 2776 2777 2779 2780 2781 2783 2785 2787 2788 2790 2791 2793 2795 2796 2798 2799 2799 2800 2801 2802 2801 2801 2801 2802 2803 2804 2805 2806 2807
2812 2807 2803 2798 2792 2788 2783 2779 2774 2770 2765 2760 2755 2750 2746 2743 2740 2737 2734 2732 2730 2729 2728 2728 2728 2728 2729 2730 2731 2732 2733 2734 2734 2735 2736 2737 2738 2738 2739 2739 2740 2741 2743 2744 2746 2747 2749 2751 2753 2755 2757 2760 2763 2765 2767 2769 2771 2773 2775 2776 2777 2779 2782 2784 2785 2787 2788 2790 2792 2794 2795 2796 2797 2798 2799 2799 2799 2800 2800 2801 2801 2802 2803 2804 2805
2807 2803 2798 2793 2788 2783 2779 2774 2770 2765 2761 2756 2751 2746 2741 2737 2735 2733 2730 2728 2727 2725 2725 2725 2725 2726 2727 2728 2729 2730 2730 2731 2731 2732 2733 2734 2735 2735 2736 2736 2737 2738 2740 2742 2743 2744 2746 2748 2750 2752 2755 2757 2759 2761 2763 2765 2767 2769 2771 2773 2774 2776 2779 2781 2782 2783 2785 2786 2788 2790 2792 2793 2794 2795 2796 2796 2797 2798 2799 2799 2800 2800 2801 2802 2803
2803 2798 2793 2788 2784 2779 2774 2769 2764 2760 2756 2751 2746 2742 2737 2734 2731 2729 2727 2725 2723 2722 2722 2722 2723 2724 2725 2726 2727 2727 2728 2728 2728 2729 2730 2731 2732 2732 2733 2734 2735 2736 2737 2739 2740 2742 2744 2745 2747 2749 2751 2754 2755 2757 2759 2762 2764 2765 2767 2770 2771 2773 2776 2778 2779 2780 2781 2783 2785 2786 2788 2790 2791 2792 2793 2793 2794 2795 2796 2797 2798 2798 2799 2800 2801
2799 2794 2789 2784 2779 2774 2769 2764 2760 2755 2751 2746 2742 2737 2733 2730 2727 2726 2723 2721 2720 2720 2720 2720 2721 2722 2723 2724 2724 2725 2725 2726 2726 2727 2727 2728 2729 2730 2731 2732 2733 2734 2735 2737 2738 2740 2741 2743 2744 2746 2748 2750 2752 2754 2756 2759 2760 2762 2764 2766 2768 2770 2772 2774 2775 2777 2778 2779 2781 2783 2785 2786 2788 2788 2789 2790 2791 2792 2794 2795 2796 2796 2797 2798 2799
2795 2790 2785 2780 2775 2770 2766 2761 2756 2751 2746 2742 2738 2734 2729 2725 2723 2722 2721 2719 2718 2717 2718 2718 2719 2720 2721 2721 2722 2723 2723 2723 2724 2725 2725 2726 2727 2728 2729 2730 2731 2732 2733 2735 2736 2737 2739 2741 2743 2744 2746 2747 2749 2751 2753 2755 2757 2758 2761 2763 2765 2767 2768 2770 2772 2773 2774 2776 2777 2779 2781 2783 2784 2785 2786 2787 2788 2790 2791 2792 2793 2794 2794 2795 2797
2791 2786 2781 2776 2771 2767 2762 2757 2752 2747 2742 2737 2734 2731 2728 2724 2720 2718 2718 2717 2716 2716 2716 2717 2718 2718 2719 2719 2720 2721 2721 2722 2722 2723 2724 2724 2725 2726 2727 2728 2729 2730 2731 2732 2733 2735 2737 2738 2740 2742 2743 2745 2746 2748 2750 2751 2753 2755 2757 2759 2761 2763 2764 2766 2768 2769 2770 2772 2774 2775 2777 2779 2781 2782 2783 2783 2785 2786 2788 2789 2790 2790 2791 2793 2795
2787 2782 2778 2773 2768 2764 2758 2753 2748 2744 2739 2734 2729 2726 2725 2723 2719 2716 2715 2715 2715 2715 2715 2716 2716 2717 2717 2718 2718 2719 2720 2720 2720 2721 2722 2723 2723 2724 2725 2726 2727 2728 2729 2730 2731 2732 2734 2736 2738 2739 2741 2742 2743 2745 2747 2749 2750 2752 2754 2756 2757 2759 2760 2762 2764 2765 2767 2769 2770 2772 2773 2775 2777 2778 2779 2780 2781 2783 2784 2786 2787 2787 2788 2790 2792
2784 2779 2775 2770 2766 2760 2755 2750 2745 2740 2736 2732 2727 2723 2721 2720 2718 2715 2713 2713 2713 2714 2714 2715 2715 2716 2716 2716 2717 2718 2718 2718 2719 2719 2720 2721 2722 2722 2723 2724 2725 2726 2727 2728 2728 2730 2731 2733 2735 2736 2738 2740 2741 2743 2744 2745 2747 2749 2751 2752 2753 2755 2756 2758 2760 2762 2763 2765 2766 2767 2769 2771 2773 2774 2776 2777 2778 2779 2781 2782 2784 2785 2786 2787 2789
2782 2777 2772 2767 2763 2758 2752 2747 2742 2738 2733 2729 2725 2722 2718 2716 2715 2714 2712 2712 2712 2713 2713 2714 2714 2715 2715 2716 2716 2717 2717 2717 2718 2718 2719 2719 2720 2721 2721 2721 2722 2723 2724 2725 2726 2727 2728 2730 2732 2734 2736 2737 2738 2739 2741 2742 2744 2745 2747 2748 2750 2751 2753 2755 2756 2757 2759 2760 2761 2763 2765 2767 2769 2770 2772 2773 2774 2775 2777 2779 2780 2782 2783 2784 2785
2780 2775 2770 2765 2760 2755 2750 2745 2740 2736 2732 2728 2724 2720 2717 2715 2713 2712 2712 2711 2711 2712 2712 2713 2713 2714 2714 2715 2715 2716 2716 2716 2716 2717 2717 2718 2718 2719 2719 2720 2720 2722 2722 2723 2724 2725 2726 2727 2729 2730 2732 2734 2735 2736 2737 2739 2740 2742 2743 2744 2746 2747 2749 2750 2751 2753 2754 2756 2757 2759 2761 2762 2764 2766 2768 2769 2770 2771 2773 2775 2777 2778 2780 2781 2782
2779 2774 2769 2764 2759 2754 2749 2744 2739 2735 2731 2728 2724 2720 2717 2715 2713 2712 2711 2711 2711 2711 2711 2712 2712 2713 2713 2713 2714 2714 2714 2714 2715 2715 2716 2716 2717 2718 2718 2719 2719 2720 2721 2722 2722 2723 2724 2725 2726 2727 2729 2731 2732 2733 2734 2736 2737 2738 2739 2740 2742 2743 2744 2746 2747 2749 2750 2752 2753 2755 2756 2758 2760 2762 2763 2765 2766 2767 2769 2771 2773 2774 2776 2777 2779
2776 2771 2767 2762 2757 2752 2747 2743 2738 2734 2730 2727 2724 2720 2717 2715 2713 2712 2711 2711 2710 2710 2710 2710 2711 2711 2711 2712 2712 2712 2712 2712 2712 2713 2714 2715 2715 2716 2717 2717 2718 2719 2720 2720 2721 2721 2723 2724 2725 2725 2727 2728 2729 2730 2731 2732 2733 2734 2736 2737 2738 2739 2741 2742 2743 2745 2746 2748 2749 2751 2752 2754 2755 2757 2759 2761 2762 2763 2765 2767 2768 2770 2772 2774 2776
2773 2768 2764 2759 2755 2750 2746 2741 2737 2733 2730 2726 2723 2720 2718 2715 2713 2712 2711 2710 2710 2709 2709 2709 2709 2709 2710 2710 2710 2710 2710 2710 2711 2711 2712 2713 2713 2714 2715 2716 2717 2717 2718 2718 2719 2720 2721 2722 2723 2723 2724 2726 2727 2728 2729 2730 2731 2732 2733 2734 2735 2736 2737 2738 2740 2741 2742 2744 2746 2747 2749 2750 2751 2753 2755 2756 2758 2759 2761 2762 2764 2766 2768 2770 2772
2771 2766 2761 2757 2753 2748 2744 2740 2736 2733 2729 2726 2723 2720 2717 2715 2713 2711 2710 2709 2708 2708 2708 2708 2708 2708 2708 2709 2709 2708 2708 2709 2709 2709 2710 2711 2711 2712 2713 2713 2714 2715 2716 2716 2716 2717 2718 2719 2720 2721 2722 2723 2724 2725 2726 2727 2728 2729 2730 2731 2732 2733 2734 2736 2737 2738 2739 2741 2742 2744 2745 2747 2748 2749 2751 2752 2754 2755 2757 2759 2761 2763 2765 2767 2769
2770 2765 2760 2755 2751 2747 2742 2739 2735 2732 2728 2725 2722 2720 2717 2715 2713 2711 2709 2708 2707 2707 2707 2707 2707 2707 2707 2707 2707 2707 2707 2707 2707 2708 2709 2709 2709 2709 2710 2711 2712 2712 2713 2713 2714 2715 2716 2717 2718 2719 2720 2721 2722 2723 2724 2725 2725 2726 2727 2728 2730 2731 2732 2733 2734 2736 2737 2738 2740 2741 2742 2744 2745 2746 2748 2749 2751 2752 2753 2755 2757 2759 2761 2763 2766
2767 2763 2758 2754 2749 2745 2741 2737 2734 2730 2727 2724 2721 2719 2716 2714 2712 2710 2708 2707 2706 2705 2705 2705 2705 2705 2705 2705 2705 2705 2705 2705 2706 2706 2707 2707 2707 2707 2708 2709 2709 2710 2710 2711 2712 2712 2713 2714 2716 2717 2718 2719 2720 2721 2722 2722 2723 2724 2725 2726 2727 2728 2730 2731 2732 2733 2735 2736 2737 2739 2740 2741 2742 2743 2745 2746 2748 2749 2751 2752 2754 2756 2758 2760 2763
2764 2760 2756 2752 2748 2744 2740 2736 2733 2730 2726 2723 2720 2718 2715 2713 2711 2709 2708 2706 2705 2704 2703 2703 2703 2703 2703 2703 2703 2703 2704 2704 2704 2704 2704 2705 2705 2705 2706 2706 2707 2708 2708 2709 2709 2710 2711 2712 2713 2714 2715 2717 2718 2719 2719 2720 2721 2722 2723 2724 2725 2726 2727 2729 2730 2731 2732 2734 2735 2736 2737 2739 2740 2741 2742 2744 2745 2747 2748 2750 2751 2753 2755 2758 2760
2762 2758 2754 2750 2746 2742 2739 2735 2732 2729 2726 2723 2720 2717 2714 2712 2710 2709 2707 2705 2704 2703 2702 2701 2701 2701 2701 2701 2701 2701 2702 2702 2701 2702 2702 2702 2703 2703 2703 2704 2704 2705 2705 2706 2707 2707 2708 2709 2711 2712 2713 2714 2715 2716 2717 2718 2719 2720 2721 2722 2723 2724 2725 2726 2728 2729 2730 2731 2732 2734 2735 2736 2738 2739 2740 2741 2743 2744 2745 2747 2749 2751 2753 2755 2757
2761 2757 2753 2749 2745 2741 2737 2734 2731 2728 2725 2722 2719 2716 2714 2711 2709 2708 2706 2705 2703 2702 2701 2700 2700 2699 2699 2699 2699 2699 2699 2699 2699 2700 2700 2700 2700 2701 2701 2701 2702 2702 2703 2704 2704 2705 2706 2707 2708 2709 2710 2711 2713 2714 2715 2716 2717 2718 2719 2720 2721 2722 2723 2724 2725 2726 2728 2729 2730 2731 2733 2734 2735 2737 2738 2739 2740 2742 2743 2745 2746 2748 2750 2752 2754
2759 2755 2751 2748 2744 2740 2736 2733 2730 2726 2724 2721 2718 2716 2713 2711 2709 2707 2705 2704 2702 2701 2700 2699 2698 2697 2697 2697 2696 2696 2697 2697 2697 2697 2697 2697 2698 2698 2698 2699 2699 2700 2700 2701 2702 2703 2703 2704 2705 2706 2708 2709 2710 2711 2712 2713 2714 2715 2716 2717 2718 2719 2721 2722 2723 2724 2725 2726 2728 2729 2730 2732 2733 2734 2736 2737 2738 2740 2741 2742 2744 2745 2747 2749 2751
2757 2753 2750 2746 2743 2739 2736 2732 2729 2725 2723 2720 2718 2715 2713 2710 2708 2706 2704 2703 2701 2700 2699 2698 2697 2696 2695 2695 2694 2694 2694 2694 2695 2695 2695 2695 2695 2696 2696 2696 2697 2698 2698 2699 2699 2700 2701 2702 2703 2704 2705 2706 2707 2708 2709 2711 2712 2713 2714 2715 2716 2717 2718 2719 2720 2722 2723 2724 2725 2726 2728 2729 2730 2732 2733 2734 2736 2737 2739 2740 2742 2743 2745 2747 2748
2756 2752 2749 2745 2742 2738 2735 2731 2728 2725 2722 2719 2716 2714 2712 2709 2707 2705 2703 2701 2700 2698 2697 2696 2696 2695 2694 2693 2693 2692 2692 2692 2692 2692 2692 2693 2693 2693 2693 2694 2695 2695 2696 2696 2697 2698 2698 2699 2700 2701 2702 2703 2705 2706 2707 2708 2709 2710 2711 2712 2713 2714 2715 2717 2718 2719 2720 2722 2723 2724 2725 2727 2728 2729 2731 2732 2733 2735 2736 2738 2739 2741 2742 2744 2746
2754 2751 2747 2744 2740 2737 2734 2731 2727 2724 2721 2718 2715 2713 2710 2708 2706 2704 2702 2700 2699 2697 2696 2695 2694 2693 2693 2692 2691 2691 2690 2690 2690 2690 2690 2690 2690 2690 2691 2691 2692 2693 2693 2694 2695 2695 2696 2697 2698 2699 2700 2701 2702 2703 2704 2705 2706 2707 2709 2709 2711 2712 2713 2714 2716 2717 2718 2719 2720 2722 2723 2724 2725 2727 2728 2729 2731 2732 2734 2735 2737 2738 2740 2742 2743
2752 2749 2746 2742 2739 2736 2733 2730 2727 2723 2720 2717 2714 2712 2709 2707 2705 2703 2701 2699 2698 2696 2695 2693 2692 2691 2691 2690 2690 2689 2689 2688 2688 2688 2688 2688 2688 2688 2688 2688 2689 2690 2690 2691 2692 2693 2694 2694 2695 2696 2697 2698 2699 2700 2701 2703 2704 2705 2706 2707 2708 2709 2711 2712 2713 2714 2716 2717 2718 2719 2720 2722 2723 2724 2726 2727 2728 2730 2731 2733 2734 2736 2737 2739 2741
2750 2747 2744 2741 2737 2734 2731 2728 2725 2722 2719 2717 2714 2711 2709 2706 2704 2702 2700 2699 2697 2695 2694 2692 2691 2690 2689 2688 2688 2687 2687 2686 2686 2686 2686 2686 2686 2686 2686 2686 2686 2687 2687 2688 2689 2690 2691 2692 2693 2694 2694 2695 2696 2697 2699 2700 2701 2702 2703 2704 2706 2707 2708 2709 2710 2712 2713 2714 2716 2717 2718 2719 2720 2722 2723 2725 2726 2727 2729 2730 2732 2733 2735 2736 2738
2749 2746 2743 2739 2736 2733 2730 2727 2724 2721 2718 2716 2713 2711 2708 2706 2703 2701 2699 2698 2696 2694 2693 2691 2690 2688 2687 2687 2686 2686 2685 2684 2684 2684 2684 2684 2684 2684 2684 2684 2684 2684 2685 2686 2686 2687 2688 2689 2690 2691 2692 2693 2693 2695 2696 2697 2698 2699 2700 2702 2703 2704 2706 2707 2708 2709 2710 2712 2713 2714 2716 2717 2718 2719 2721 2722 2724 2725 2726 2728 2729 2731 2732 2733 2735
2748 2745 2742 2738 2735 2732 2729 2726 2723 2720 2718 2715 2712 2710 2707 2705 2703 2700 2698 2696 2695 2693 2692 2690 2689 2687 2686 2685 2684 2684 2683 2683 2682 2682 2682 2682 2682 2682 2682 2682 2682 2682 2683 2683 2684 2685 2685 2686 2687 2688 2689 2690 2691 2692 2693 2694 2695 2696 2697 2699 2700 2702 2703 2704 2705 2706 2708 2709 2710 2712 2713 2714 2716 2717 2718 2720 2721 2723 2724 2725 2727 2728 2729 2731 2732